Vertical_Velocity
-4 -3 -1 1 -1 1 0 2 0 1 0 0 -1 -2 -0 1 -0 1 -1 -0 -3 -1 -1 1 -1 1 -0 -0 -1 -1 -0 1 2 3 -1 -3 1 1 -0 -1 -1 -5 -4
-2 -3 1 2 -1 1 -1 1 3 2 2 1 1 -2 3 -1 -2 -1 -2 -2 -1 0 -1 0 0 -0 0 -1 -1 -1 -1 0 2 -0 1 6 0 -0 -3 -2 -2 -2 -3
4 -2 -1 2 -2 1 0 0 -2 0 2 2 1 0 0 -1 -1 -2 -0 -1 -0 -0 0 0 0 0 0 -0 -0 -1 -2 -3 -3 -0 -3 -1 7 -0 15 4 -0 -0 2
-0 1 3 0 -1 0 0 -1 0 -0 0 1 -0 1 -0 -2 -0 -1 1 0 1 0 1 -1 -0 0 -0 -0 -0 -1 -1 -3 -1 -5 -2 -4 -6 -1 7 23 9 -1 3
1 1 9 2 -2 -2 -0 -1 -1 -0 1 -0 1 1 -2 1 -0 -0 -0 1 -0 1 0 -1 0 -0 -1 0 -1 -1 -0 0 -2 -1 -3 -2 -4 -11 -17 -2 25 13 -3
5 -4 2 1 -2 -1 0 2 1 1 1 1 -1 -1 0 0 -0 -0 1 1 1 0 -0 -0 -1 -1 -0 -1 -2 -1 -0 -2 -1 -1 -2 -2 -3 3 -12 -11 -6 -6 29
-5 1 -2 3 1 3 0 0 2 2 0 0 -0 0 0 -1 -1 -1 1 1 1 0 -0 -0 -1 -0 -0 -1 -1 0 -0 -1 -0 -0 -1 -3 -3 -2 -5 -10 -4 -19 1
1 1 0 1 2 1 -0 1 1 1 -0 -1 -0 -1 -1 -1 -1 -0 2 1 -1 -1 -0 -0 -1 -0 -0 0 0 -0 -0 -1 -2 -3 -4 -1 -4 -3 -6 -9 -17 -3 -4
5 6 2 7 3 0 1 1 0 -0 -1 -1 -1 -0 1 -0 0 1 1 1 -0 0 0 -0 -0 -0 0 1 0 1 1 -0 -1 -3 -2 -3 -2 -1 -3 -4 -6 -21 -32
-2 1 3 -2 0 0 2 1 1 1 1 1 2 1 0 1 1 1 1 1 1 -1 -1 -1 -0 -1 -0 -0 1 1 -2 1 -2 -3 2 -1 -3 -0 -1 -4 -3 -3 -16
0 4 4 0 -0 0 1 0 1 1 -0 0 1 1 0 0 1 1 0 -1 -1 -1 -1 -1 -1 -1 -1 -1 -0 -1 -1 -1 0 -2 -1 -1 -3 -1 -0 -2 -0 -1 -5
-0 2 0 1 2 0 -1 0 0 1 -0 0 0 -1 1 0 1 0 -0 -0 -1 -1 -1 1 0 0 0 -1 -1 -2 -3 -1 -0 -1 -1 -1 -2 -1 -2 -4 0 -1 5
3 -0 -3 4 2 1 0 1 0 1 0 -0 1 1 1 1 1 0 -0 -1 -0 0 1 1 0 -0 -1 -1 -4 -3 -0 -0 -1 -2 -2 -2 -2 1 -3 -1 -1 -3 -0
2 -1 2 2 1 1 0 1 1 1 0 -0 -0 -0 0 1 1 0 0 0 1 1 0 -1 -1 -0 -0 -2 1 1 1 1 -0 -1 -3 -1 -3 -3 -4 -4 0 -2 -7
-0 1 2 1 1 1 2 2 1 0 -0 -0 -0 1 1 0 0 -0 0 1 0 -1 -1 -0 -2 -2 -1 -0 0 0 3 1 1 1 1 -0 -1 -6 -5 -11 -2 -2 -4
-3 -1 2 3 1 -0 0 1 1 -0 -1 0 1 -0 -0 1 1 -0 0 0 0 0 0 -0 1 1 1 0 0 -3 1 -1 -1 1 2 -2 -3 -0 -1 -1 1 -2 -10
-1 1 -0 0 1 0 -1 0 -0 0 1 -0 0 0 1 1 -0 0 0 -0 -0 -1 -1 -2 -0 -1 -2 -1 -1 -2 1 3 -1 -4 -5 -3 -5 -9 -7 2 2 3 3
1 1 0 -1 -1 -1 -1 -2 -1 -0 1 1 -0 1 0 0 1 0 1 1 0 -0 -1 -2 -2 1 -4 -1 -2 0 3 2 -1 -3 -3 -9 -7 -2 -4 -2 2 2 -3
1 1 0 -0 -0 -0 1 0 1 0 -0 0 1 0 1 1 1 1 1 0 -0 -0 -0 -1 1 -0 -0 -2 1 1 0 1 3 -1 1 -4 -3 1 -2 -8 -3 1 -2
1 1 0 0 -1 -0 1 1 0 1 1 0 -0 1 1 1 1 1 0 0 1 -1 1 1 -3 -4 -1 1 0 -2 -5 -4 -2 -2 -4 0 -1 -3 -2 -4 -3 1 -1
1 1 1 1 2 1 1 2 2 0 -0 1 1 1 2 1 1 0 -0 1 -0 -1 -2 -1 -3 -1 -3 -1 -5 -3 -5 -9 -3 -5 -4 -1 -2 -2 -2 -1 -1 -3 -0
1 1 1 1 1 1 0 0 1 0 0 1 2 2 2 1 -1 -0 -0 -1 0 0 0 2 5 0 -4 -9 -3 0 -3 -6 -9 -2 -2 -2 -2 -1 -2 1 -1 -1 -1
-0 -0 0 -0 -0 0 0 -1 -0 1 2 2 1 1 -0 -0 1 0 -1 -2 -1 -0 1 2 3 2 -1 1 -2 -1 -4 -3 -1 -1 -3 -4 -5 -2 -3 -2 -1 0 1
-0 -0 0 0 -0 -0 0 1 1 1 1 1 0 -0 -0 1 0 -1 1 0 1 1 0 -3 -2 1 1 -0 0 3 -1 1 3 2 3 -4 -3 -2 1 2 -2 -2 -1
0 0 0 0 1 1 1 1 1 1 -0 -1 -0 0 -0 -1 -1 -0 0 2 -2 -4 -1 -1 -1 -4 -1 -1 -3 -8 -4 -5 -0 -1 -0 -1 -2 -2 -3 -5 -1 -1 -1
1 1 1 1 1 2 1 -0 -1 -0 0 -0 -1 -0 -0 -1 0 2 -0 -10 -2 -2 -4 -6 -9 -2 -8 -9 -7 -3 -1 -2 -1 1 1 -1 0 -0 -0 -0 -2 -1 -1
Height
5734 5739 5742 5745 5748 5750 5752 5754 5756 5757 5759 5761 5762 5764 5765 5766 5766 5767 5767 5765 5763 5760 5758 5756 5754 5752 5749 5746 5742 5739 5735 5731 5729 5725 5721 5717 5714 5710 5707 5703 5698 5694 5689
5727 5731 5736 5738 5741 5743 5745 5748 5749 5751 5753 5755 5756 5758 5759 5760 5760 5760 5760 5758 5755 5753 5750 5748 5746 5743 5740 5736 5733 5729 5724 5720 5717 5714 5712 5710 5705 5699 5696 5691 5686 5682 5677
5720 5724 5729 5731 5734 5737 5739 5741 5742 5745 5748 5749 5750 5751 5753 5753 5754 5753 5752 5751 5747 5745 5742 5740 5737 5734 5730 5727 5723 5719 5715 5710 5705 5703 5699 5696 5695 5692 5690 5682 5675 5669 5663
5713 5718 5723 5726 5728 5730 5732 5734 5736 5739 5741 5743 5744 5745 5747 5747 5747 5746 5745 5743 5740 5737 5735 5731 5728 5724 5720 5716 5712 5708 5704 5700 5696 5690 5685 5681 5676 5672 5673 5672 5665 5657 5649
5705 5710 5716 5718 5720 5723 5726 5728 5730 5732 5734 5736 5738 5739 5740 5740 5740 5739 5737 5735 5732 5729 5726 5722 5719 5715 5710 5706 5702 5698 5693 5689 5684 5679 5674 5668 5660 5653 5648 5647 5646 5639 5631
5697 5702 5708 5710 5714 5717 5720 5721 5723 5726 5728 5730 5731 5732 5733 5733 5733 5732 5730 5727 5724 5720 5717 5713 5709 5705 5700 5696 5692 5687 5682 5677 5672 5665 5659 5652 5646 5640 5632 5627 5622 5617 5615
5688 5695 5700 5705 5708 5711 5713 5714 5717 5719 5721 5724 5725 5725 5726 5725 5725 5724 5721 5719 5715 5711 5707 5704 5700 5696 5691 5686 5682 5676 5671 5665 5658 5651 5644 5636 5628 5621 5612 5605 5601 5596 5592
5680 5687 5693 5697 5700 5703 5706 5708 5711 5714 5715 5717 5717 5718 5717 5717 5716 5715 5713 5710 5706 5702 5698 5694 5690 5686 5681 5676 5671 5666 5659 5652 5644 5637 5629 5621 5612 5603 5593 5584 5576 5574 5570
5674 5679 5686 5691 5694 5696 5699 5702 5705 5707 5708 5710 5710 5710 5710 5709 5708 5707 5704 5701 5698 5694 5689 5685 5681 5677 5672 5666 5660 5653 5646 5638 5630 5622 5614 5605 5596 5587 5577 5566 5555 5543 5541
5665 5672 5678 5683 5686 5689 5693 5697 5699 5700 5702 5703 5702 5702 5702 5701 5700 5698 5696 5693 5689 5684 5680 5676 5671 5666 5660 5654 5647 5640 5632 5625 5616 5607 5598 5589 5580 5571 5560 5549 5536 5522 5509
5659 5666 5671 5676 5678 5683 5687 5690 5693 5695 5695 5695 5696 5696 5695 5694 5692 5690 5687 5683 5679 5674 5670 5665 5660 5655 5648 5641 5634 5627 5619 5610 5601 5590 5582 5572 5563 5553 5542 5530 5516 5500 5480
5651 5658 5664 5669 5672 5677 5681 5684 5686 5687 5688 5689 5689 5689 5688 5686 5684 5681 5677 5674 5669 5665 5660 5655 5649 5643 5636 5628 5621 5613 5604 5594 5585 5575 5566 5556 5545 5534 5521 5506 5491 5474 5455
5647 5652 5658 5663 5667 5672 5675 5677 5680 5681 5681 5682 5682 5681 5680 5678 5675 5672 5668 5664 5659 5654 5650 5644 5637 5630 5623 5615 5607 5598 5588 5578 5569 5559 5549 5537 5525 5512 5497 5481 5464 5446 5427
5641 5648 5653 5657 5662 5666 5669 5672 5673 5674 5675 5675 5674 5674 5672 5669 5665 5662 5658 5653 5649 5644 5638 5631 5625 5618 5610 5601 5592 5583 5573 5563 5552 5541 5529 5516 5502 5486 5470 5454 5434 5414 5393
5639 5644 5648 5652 5657 5660 5663 5666 5667 5668 5668 5667 5666 5665 5662 5660 5657 5653 5648 5644 5638 5632 5627 5620 5612 5605 5597 5588 5579 5569 5559 5548 5537 5524 5510 5495 5478 5461 5443 5421 5403 5380 5361
5636 5640 5645 5649 5653 5656 5658 5660 5661 5661 5660 5660 5658 5656 5654 5651 5648 5643 5639 5633 5628 5622 5615 5608 5601 5592 5583 5574 5564 5555 5544 5532 5519 5506 5491 5474 5456 5438 5418 5397 5375 5355 5335
5633 5637 5641 5645 5648 5651 5652 5654 5654 5654 5654 5653 5651 5648 5646 5642 5638 5633 5628 5623 5617 5610 5603 5596 5588 5579 5570 5560 5550 5540 5529 5515 5498 5483 5467 5451 5430 5410 5392 5374 5357 5341 5324
5632 5636 5639 5642 5644 5646 5647 5648 5648 5648 5647 5645 5643 5640 5637 5633 5629 5624 5619 5612 5606 5599 5591 5583 5574 5566 5556 5547 5536 5525 5511 5496 5479 5460 5441 5423 5406 5385 5365 5352 5340 5327 5314
5630 5633 5636 5638 5640 5640 5641 5642 5641 5641 5639 5637 5635 5632 5628 5624 5619 5614 5608 5602 5594 5587 5578 5569 5561 5552 5542 5532 5520 5507 5493 5478 5461 5440 5419 5398 5380 5363 5348 5336 5326 5317 5307
5628 5630 5632 5633 5634 5634 5635 5635 5634 5633 5632 5629 5626 5623 5619 5614 5609 5604 5598 5591 5583 5574 5566 5557 5548 5538 5528 5515 5502 5488 5473 5459 5443 5422 5399 5378 5360 5345 5333 5324 5316 5309 5302
5624 5626 5627 5628 5628 5629 5628 5628 5627 5626 5624 5621 5617 5614 5609 5605 5599 5593 5586 5579 5570 5562 5554 5546 5535 5524 5511 5497 5483 5468 5452 5436 5420 5399 5379 5362 5347 5334 5325 5316 5309 5303 5297
5619 5620 5621 5622 5623 5623 5622 5622 5620 5618 5615 5612 5609 5605 5600 5595 5589 5582 5574 5567 5560 5552 5543 5534 5522 5508 5493 5479 5465 5449 5430 5412 5393 5377 5361 5348 5336 5327 5318 5311 5305 5298 5291
5615 5616 5617 5617 5617 5617 5616 5614 5613 5610 5607 5603 5600 5595 5590 5584 5578 5570 5563 5555 5548 5539 5530 5520 5508 5494 5479 5463 5447 5430 5410 5391 5375 5359 5346 5336 5328 5320 5313 5307 5300 5294 5289
5611 5612 5612 5612 5611 5610 5609 5607 5604 5601 5598 5594 5590 5585 5580 5573 5566 5560 5553 5545 5537 5527 5516 5505 5493 5479 5463 5446 5429 5411 5390 5374 5360 5348 5337 5328 5321 5314 5308 5302 5296 5290 5284
5606 5606 5606 5606 5604 5603 5601 5598 5595 5592 5589 5585 5580 5574 5568 5562 5556 5549 5542 5533 5523 5512 5502 5489 5476 5461 5446 5428 5409 5390 5373 5360 5348 5338 5330 5322 5316 5310 5303 5297 5292 5287 5280
5601 5601 5600 5599 5597 5595 5592 5590 5587 5584 5580 5575 5570 5564 5559 5553 5546 5538 5529 5519 5509 5496 5483 5469 5456 5441 5423 5407 5390 5374 5360 5348 5339 5332 5325 5318 5312 5306 5301 5295 5288 5282 5277